This demonstration page uses our WeatherBlox Daily Observations layout. Learn more.

Left ArrowRight Arrow

41.55636, -103.73856

Hourly Observations for August 15, 2021

Temp ( °F °C ) Dew Point ( °F °C ) Humidity (%) Winds ( mph kmh ) Pressure ( in mb ) Visibility ( mi km ) Precip ( " mm )
2:58 am 02:58 Clear 69 20.3 53 11.4 57 57 SSW 24 39 29.94 1014 10 16 0.00 0.00
3:58 am 03:58 Mostly Cloudy 69 20.4 50 10.2 52 52 WSW 13 20 29.95 1014 10 16 0.00 0.00
4:58 am 04:58 Mostly Clear 69 20.3 47 8.5 47 47 W 8 13 29.93 1014 10 16 0.00 0.00
5:58 am 05:58 Mostly Cloudy 65 18.4 47 8.2 52 52 N 7 11 29.95 1014 10 16 0.00 0.00
6:58 am 06:58 Mostly Sunny 68 20 46 8 46 46 SSW 5 7 29.96 1015 10 16 0.00 0.00
7:58 am 07:58 Sunny 69 20.7 47 8.5 46 46 W 6 9 29.96 1015 10 16 0.00 0.00
8:58 am 08:58 Sunny 74 23.2 48 9.1 41 41 Calm 29.98 1015 10 16 0.00 0.00
9:58 am 09:58 Mostly Sunny 80 26.7 47 8.2 31 31 NE 10 17 29.97 1015 10 16 0.00 0.00
10:58 am 10:58 Sunny 81 27 48 8.8 32 32 NE 8 13 29.99 1016 10 16 0.00 0.00
11:58 am 11:58 Sunny 82 27.8 49 9.4 32 32 ESE 7 11 29.97 1015 10 16 0.00 0.00
12:58 pm 12:58 Sunny 84 28.8 46 7.6 26 26 Calm 29.95 1014 10 16 0.00 0.00
1:58 pm 13:58 Sunny 86 29.8 43 6.2 23 23 Calm 29.93 1014 10 16 0.00 0.00
2:58 pm 14:58 Sunny 87 30.6 38 3.5 18 18 NNE 3 6 29.91 1013 10 16 0.00 0.00
3:58 pm 15:58 Sunny 90 32 37 2.9 16 16 Calm 29.89 1012 10 16 0.00 0.00
4:58 pm 16:58 Sunny 89 31.9 38 3.5 16 16 NE 10 17 29.88 1012 10 16 0.00 0.00
5:58 pm 17:58 Sunny 88 31.1 40 4.6 19 19 E 6 9 29.89 1012 10 16 0.00 0.00
6:58 pm 18:58 Sunny 83 28.4 44 6.5 25 25 E 8 13 29.89 1012 10 16 0.00 0.00
7:58 pm 19:58 Clear 79 25.9 42 5.7 27 27 ESE 9 15 29.91 1013 10 16 0.00 0.00
8:58 pm 20:58 Partly Cloudy 78 25.3 40 4.6 26 26 W 7 11 29.93 1014 10 16 0.00 0.00
9:58 pm 21:58 Clear 71 21.7 39 3.9 31 31 WSW 6 9 29.93 1014 10 16 0.00 0.00
10:58 pm 22:58 Clear 67 19.6 40 4.2 36 36 SW 7 11 29.93 1013 10 16 0.00 0.00
11:58 pm 23:58 Clear 72 22.4 38 3.6 29 29 Calm 29.91 1013 10 16 0.00 0.00

Powered by AerisWeather